TimeEDT,TemperatureF,Dew PointF,Humidity,Sea Level PressureIn,VisibilityMPH,Wind Direction,Wind SpeedMPH,Gust SpeedMPH,PrecipitationIn,Events,Conditions,WindDirDegrees,DateUTC
12:58 AM,79.2,74.3,85,29.97,10.0,NNE,5.8,-,N/A,,Clear,20,2013-09-04 04:58:00
1:58 AM,77.7,73.6,87,29.97,10.0,Calm,Calm,-,N/A,,Clear,0,2013-09-04 05:58:00
2:58 AM,76.3,73.6,91,29.96,10.0,SSE,1.2,-,N/A,,Clear,150,2013-09-04 06:58:00
3:58 AM,76.6,74.1,92,29.96,10.0,SW,5.8,-,N/A,,Clear,220,2013-09-04 07:58:00
4:58 AM,75.7,73.8,94,29.97,10.0,WSW,3.5,-,N/A,,Clear,250,2013-09-04 08:58:00
5:58 AM,75.4,73.4,94,29.98,10.0,SW,2.3,-,N/A,,Clear,230,2013-09-04 09:58:00
6:58 AM,74.8,73.0,94,29.99,10.0,Calm,Calm,-,N/A,,Clear,0,2013-09-04 10:58:00
7:58 AM,76.1,74.7,95,30.02,10.0,SW,2.3,-,N/A,,Clear,230,2013-09-04 11:58:00
8:58 AM,79.3,75.9,89,30.03,10.0,West,5.8,-,N/A,,Clear,260,2013-09-04 12:58:00
9:58 AM,82.9,75.0,77,30.04,10.0,NNW,1.2,-,N/A,,Clear,340,2013-09-04 13:58:00
10:30 AM,84.2,75.2,74,30.04,10.0,Variable,2.3,-,N/A,,Light Drizzle,0,2013-09-04 14:30:00
10:32 AM,84.2,75.2,74,30.04,10.0,Variable,1.2,-,N/A,,Clear,0,2013-09-04 14:32:00
10:58 AM,85.5,74.8,70,30.05,10.0,Variable,1.2,-,0.00,,Clear,0,2013-09-04 14:58:00
10:59 AM,86.0,75.2,70,30.04,10.0,Variable,1.2,-,N/A,,Light Drizzle,0,2013-09-04 14:59:00
11:07 AM,86.0,75.2,70,30.04,10.0,WSW,4.6,-,N/A,,Clear,250,2013-09-04 15:07:00
11:58 AM,88.3,75.7,66,30.05,10.0,Variable,4.6,-,0.00,,Clear,0,2013-09-04 15:58:00
12:58 PM,90.0,75.0,61,30.04,10.0,West,3.5,-,N/A,,Clear,280,2013-09-04 16:58:00
1:58 PM,91.0,75.0,59,30.03,10.0,WNW,5.8,-,N/A,,Partly Cloudy,300,2013-09-04 17:58:00
2:49 PM,89.6,73.4,59,30.02,10.0,NNW,2.3,-,N/A,Thunderstorm,Thunderstorm,330,2013-09-04 18:49:00
2:58 PM,90.1,74.1,59,30.02,10.0,West,5.8,-,N/A,Thunderstorm,Thunderstorm,260,2013-09-04 18:58:00
3:27 PM,91.4,75.2,59,30.00,10.0,South,9.2,-,N/A,Rain-Thunderstorm,Light Thunderstorms and Rain,190,2013-09-04 19:27:00
3:30 PM,91.4,73.4,55,30.00,10.0,SSW,6.9,-,N/A,Thunderstorm,Light Drizzle,200,2013-09-04 19:30:00
3:33 PM,91.4,73.4,55,30.00,10.0,South,8.1,-,N/A,Thunderstorm,Partly Cloudy,190,2013-09-04 19:33:00
3:39 PM,93.2,75.2,56,30.00,10.0,WSW,6.9,-,N/A,Thunderstorm,Thunderstorm,240,2013-09-04 19:39:00
3:58 PM,88.7,74.5,63,30.01,10.0,East,16.1,-,0.00,Thunderstorm,Thunderstorm,100,2013-09-04 19:58:00
4:16 PM,84.2,69.8,62,30.00,10.0,East,13.8,-,N/A,Rain-Thunderstorm,Light Thunderstorms and Rain,100,2013-09-04 20:16:00
4:25 PM,84.2,71.6,66,30.00,10.0,ESE,8.1,-,N/A,Thunderstorm,Thunderstorm,120,2013-09-04 20:25:00
4:35 PM,84.2,73.4,70,29.99,10.0,ESE,9.2,-,N/A,Thunderstorm,Mostly Cloudy,110,2013-09-04 20:35:00
4:44 PM,84.2,73.4,70,30.00,10.0,ESE,11.5,-,N/A,Thunderstorm,Light Drizzle,110,2013-09-04 20:44:00
4:49 PM,84.2,73.4,70,30.01,10.0,East,10.4,-,N/A,Rain-Thunderstorm,Light Thunderstorms and Rain,100,2013-09-04 20:49:00
4:55 PM,84.2,73.4,70,30.00,10.0,ENE,8.1,-,N/A,Thunderstorm,Thunderstorm,60,2013-09-04 20:55:00
4:58 PM,84.2,75.2,74,30.01,10.0,NE,9.2,-,0.00,Thunderstorm,Thunderstorm,50,2013-09-04 20:58:00
5:29 PM,82.4,73.4,74,30.02,10.0,East,6.9,-,N/A,Thunderstorm,Partly Cloudy,80,2013-09-04 21:29:00
5:58 PM,82.0,72.1,72,30.02,10.0,East,5.8,-,0.00,Thunderstorm,Mostly Cloudy,100,2013-09-04 21:58:00
6:58 PM,81.5,73.0,75,30.01,10.0,SE,4.6,-,N/A,,Mostly Cloudy,140,2013-09-04 22:58:00
7:58 PM,80.6,75.2,84,30.02,10.0,SSE,2.3,-,N/A,,Clear,150,2013-09-04 23:58:00
8:58 PM,81.3,77.4,88,30.04,10.0,SSW,3.5,-,N/A,Thunderstorm,Scattered Clouds,210,2013-09-05 00:58:00
9:58 PM,81.0,77.5,89,30.07,10.0,West,4.6,-,N/A,,Mostly Cloudy,280,2013-09-05 01:58:00
10:58 PM,79.5,75.6,88,30.08,10.0,NNW,5.8,-,N/A,Thunderstorm,Partly Cloudy,340,2013-09-05 02:58:00
11:58 PM,79.0,74.5,86,30.08,10.0,NW,4.6,-,N/A,,Mostly Cloudy,320,2013-09-05 03:58:00